{"data":{"norad_id":57731,"intl_designator":"2023-130E","name":"YAOGAN-39 01C","alt_names":[],"object_type":"PAYLOAD","status":"ACTIVE","operator":null,"country":"PRC","launch_date":"2023-08-31","launch_site_code":"XICLF","launch_vehicle":null,"mission":null,"orbit_class":"UNKNOWN","rcs_meters":null,"size_class":null,"mass_kg":null,"dimensions":null,"purposes":[],"wikipedia_slug":null,"has_3d_model":false,"image_url":null,"decayed_at":null,"tle_current":{"epoch":"2026-09-23T00:09:41.644800Z","epoch_age_seconds":89578,"freshness":"FRESH","line1":"1 57731U 23130E   26266.00673200  .00003519  00000+0  17576-3 0  9998","line2":"2 57731  34.9926 262.8173 0009560 119.7760 240.3905 15.16950914170325","mean_motion":15.16950914,"eccentricity":0.000956,"inclination_deg":34.9926,"raan_deg":262.8173,"arg_perigee_deg":119.776,"mean_anomaly_deg":240.3905,"bstar":0.00017576,"rev_number":17032,"period_min":94.927264073622,"perigee_km":508.47220227475,"apogee_km":521.65199895513,"semimajor_km":6893.1991006149,"source":"CELESTRAK","updated_at":"2026-09-23T09:00:18.329501Z"}}}